Location: Newark
(35.2672°N, 80.7344°W)
Time: 17:13:37
(UTC+00:00)

A-11 Canister half - All Passes

Search period start: 24 January 2020 00:00
Search period end: 03 February 2020 00:00
Orbit: 1525 x 1684 km, 47.3° (Epoch: 23 January)

Date Brightness Start Highest point End Pass type
(mag) Time Alt. Az. Time Alt. Az. Time Alt. Az.
24 Jan - 00:57:47 10° W 01:06:43 45° NNW 01:15:56 10° ENE visible
24 Jan - 03:04:42 10° WNW 03:13:44 43° N 03:23:02 10° E visible
24 Jan - 05:10:08 10° NW 05:19:57 81° NE 05:30:03 10° ESE night (unlit)
24 Jan - 07:15:56 10° WNW 07:24:28 34° SW 07:33:11 10° S night (unlit)
24 Jan - 20:28:21 10° S 20:35:15 24° SE 20:42:11 10° ENE daylight
24 Jan - 22:29:55 10° SW 22:39:13 84° SE 22:48:47 10° NE daylight
25 Jan - 00:36:03 10° W 00:45:00 46° NNW 00:54:13 10° ENE visible
25 Jan - 02:43:01 10° WNW 02:52:00 43° N 03:01:15 10° E visible
25 Jan - 04:48:30 10° NW 04:58:16 78° NNE 05:08:20 10° ESE visible
25 Jan - 06:54:12 10° WNW 07:02:52 36° SW 07:11:44 10° SSE night (unlit)
25 Jan - 20:07:04 10° S 20:13:41 22° SE 20:20:20 10° E daylight
25 Jan - 22:08:19 10° SW 22:17:36 81° SE 22:27:06 10° ENE daylight
26 Jan - 00:14:20 10° W 00:23:17 47° NNW 00:32:31 10° NE visible
26 Jan - 02:21:20 10° WNW 02:30:15 42° N 02:39:27 10° ENE visible
26 Jan - 04:26:52 10° NW 04:36:36 76° NNE 04:46:37 10° ESE visible
26 Jan - 06:32:28 10° WNW 06:41:15 38° SW 06:50:15 10° SSE night (unlit)
26 Jan - 19:45:50 10° S 19:52:08 21° SE 19:58:27 10° E daylight
26 Jan - 21:46:43 10° SW 21:55:58 78° SE 22:05:26 10° ENE daylight
26 Jan - 23:52:37 10° W 00:01:35 48° NNW 00:10:49 10° NE visible
27 Jan - 01:59:39 10° WNW 02:08:31 42° N 02:17:40 10° ENE visible
27 Jan - 04:05:14 10° NW 04:14:55 73° NNE 04:24:54 10° ESE visible
27 Jan - 06:10:45 10° WNW 06:19:39 41° SW 06:28:46 10° SSE night (unlit)
27 Jan - 19:24:37 10° SSE 19:30:35 19° SE 19:36:32 10° E daylight
27 Jan - 21:25:08 10° SW 21:34:22 74° SE 21:43:47 10° ENE daylight
27 Jan - 23:30:54 10° W 23:39:53 49° NNW 23:49:07 10° NE visible
28 Jan - 01:37:58 10° WNW 01:46:48 41° N 01:55:53 10° ENE visible
28 Jan - 03:43:36 10° NW 03:53:13 70° NNE 04:03:11 10° ESE visible
28 Jan - 05:49:02 10° WNW 05:58:02 43° SW 06:07:16 10° SSE night (unlit)
28 Jan - 19:03:28 10° SSE 19:09:02 18° SE 19:14:34 10° E daylight
28 Jan - 21:03:34 10° SW 21:12:46 71° SE 21:22:06 10° ENE daylight
28 Jan - 23:09:10 10° W 23:18:11 51° NNW 23:27:26 10° NE visible
29 Jan - 01:16:16 10° WNW 01:25:03 41° N 01:34:06 10° ENE visible
29 Jan - 03:21:58 10° NW 03:31:33 68° NNE 03:41:26 10° ESE visible
29 Jan - 05:27:20 10° WNW 05:36:25 45° SW 05:45:45 10° SSE night (unlit)
29 Jan - 18:42:22 10° SSE 18:47:28 16° ESE 18:52:35 10° E daylight
29 Jan - 20:41:59 10° SW 20:51:08 67° SE 21:00:26 10° ENE daylight
29 Jan - 22:47:27 10° W 22:56:29 52° NNW 23:05:45 10° NE daylight
30 Jan - 00:54:34 10° WNW 01:03:20 40° N 01:12:19 10° ENE visible
30 Jan - 03:00:20 10° NW 03:09:52 66° NNE 03:19:42 10° ESE visible
30 Jan - 05:05:39 10° WNW 05:14:48 48° SW 05:24:13 10° SSE visible
30 Jan - 18:21:20 10° SSE 18:25:55 15° ESE 18:30:30 10° E daylight
30 Jan - 20:20:26 10° SW 20:29:33 64° SE 20:38:45 10° ENE daylight
30 Jan - 22:25:45 10° W 22:34:48 53° NNW 22:44:03 10° NE daylight
31 Jan - 00:32:52 10° WNW 00:41:35 40° N 00:50:33 10° ENE visible
31 Jan - 02:38:42 10° NW 02:48:11 63° NNE 02:57:58 10° ESE visible
31 Jan - 04:43:58 10° WNW 04:53:11 51° SW 05:02:41 10° SSE visible
31 Jan - 18:00:23 10° SSE 18:04:23 13° ESE 18:08:21 10° E daylight
31 Jan - 19:58:52 10° SW 20:07:57 61° SE 20:17:06 10° ENE daylight
31 Jan - 22:04:02 10° W 22:13:07 55° NNW 22:22:23 10° NE daylight
01 Feb - 00:11:10 10° WNW 00:19:52 40° N 00:28:46 10° ENE visible
01 Feb - 02:17:04 10° NW 02:26:30 61° NNE 02:36:13 10° ESE visible
01 Feb - 04:22:17 10° WNW 04:31:33 53° SW 04:41:07 10° SSE visible
01 Feb - 06:32:46 10° WSW 06:35:11 11° WSW 06:37:38 10° SW night (unlit)
01 Feb - 17:39:37 10° SE 17:42:50 12° ESE 17:46:01 10° E daylight
01 Feb - 19:37:20 10° SSW 19:46:21 58° SE 19:55:25 10° ENE daylight
01 Feb - 21:42:20 10° WSW 21:51:26 57° NNW 22:00:43 10° NE daylight
01 Feb - 23:49:28 10° WNW 23:58:08 40° N 00:07:01 10° ENE visible
02 Feb - 01:55:26 10° NW 02:04:48 59° NNE 02:14:28 10° ESE visible
02 Feb - 04:00:37 10° WNW 04:09:56 56° SW 04:19:33 10° SSE visible
02 Feb - 06:10:09 10° W 06:13:37 12° WSW 06:17:06 10° SW night (unlit)
02 Feb - 17:19:10 10° SE 17:21:17 11° ESE 17:23:23 10° ESE daylight
02 Feb - 19:15:48 10° SSW 19:24:45 55° SE 19:33:44 10° ENE daylight
02 Feb - 21:20:38 10° WSW 21:29:45 59° NNW 21:39:03 10° NE daylight
02 Feb - 23:27:45 10° WNW 23:36:24 40° N 23:45:15 10° ENE visible
